Location: Breitenfeld
(46.8500°N, 15.6333°E)
Time: 11:17:13
(UTC+00:00)

Transit 4B - Pass Details

Date: 01 June 2022
Orbit: 948 x 1097 km, 32.4° (Epoch: 01 July)

Event Time Altitude Azimuth Distance (km) Brightness Sun altitude
Exits shadow 00:28:26 21° 166° (SSE) 2,084 9.8 -18.0°
Drops below altitude 10° 00:32:49 10° 124° (SE) 2,734 10.7 -17.7°
Sets 00:36:06 0° 109° (ESE) 3,660 11.6 -17.5°
